Location: Unspecified
(50.1700°N, 6.8600°E)
Time: 23:04:32
(UTC+00:00)

ATLAS 5 CENTAUR R/B - Pass Details

Date: 24 January 2019
Orbit: 300 x 14379 km, 60.8° (Epoch: 16 February)

Event Time Altitude Azimuth Distance (km) Brightness Sun altitude
Exits shadow 04:02:15 80° 27° (NNE) 1,029 3.0 -31.0°
Drops below altitude 10° 04:14:40 10° 51° (NE) 6,065 7.7 -29.0°
Sets 04:23:16 0° 53° (NE) 9,200 8.8 -27.6°
